Wind_Speed
19 19 18 17 16 15 13 13 12 11 10 9 8 8 8 8 7 7 7 6 6 6 6 7 7 8 9 9 10 12 13 14 15 16 17 17 17 17 17 16 16 17
21 20 20 19 18 17 15 15 14 13 13 11 10 10 10 9 9 8 8 8 8 7 7 7 8 8 9 10 11 12 13 15 16 17 17 17 17 17 16 15 16 16
22 22 22 21 20 18 17 18 17 16 15 14 13 12 12 10 10 10 9 9 9 8 7 7 8 8 9 10 11 12 14 15 16 17 17 17 17 16 15 14 15 15
23 23 23 23 21 20 21 20 19 18 17 16 16 15 13 13 12 11 11 10 10 9 8 7 8 8 9 10 11 12 14 15 16 17 17 17 16 15 14 13 14 14
24 24 24 24 23 23 23 22 21 20 19 18 18 17 15 15 14 13 13 12 11 10 9 9 9 9 9 10 11 12 14 15 16 17 17 16 15 14 13 12 13 14
25 25 25 25 25 25 25 24 23 22 21 21 20 18 17 17 16 15 15 14 13 12 11 10 10 10 10 10 11 12 13 15 16 16 16 16 15 14 13 12 12 13
27 27 26 26 26 26 26 25 24 24 23 22 21 20 19 18 17 17 16 16 15 14 13 12 12 11 11 11 11 12 13 14 15 15 15 15 14 14 13 13 13 13
26 28 28 27 27 27 26 26 26 25 25 24 22 21 20 19 19 18 18 17 17 16 15 14 13 13 13 12 12 12 13 14 14 15 15 15 15 14 14 14 14 14
25 27 28 28 28 27 27 27 27 26 26 25 23 22 21 20 20 19 19 19 19 18 17 16 15 15 14 14 14 13 14 14 14 15 15 15 15 14 14 14 14 14
23 26 28 29 29 28 28 28 27 27 27 26 24 23 22 21 20 20 20 20 20 20 19 18 17 17 16 16 15 15 15 15 15 15 15 15 15 15 14 14 14 14
24 26 28 30 30 29 29 28 28 28 28 27 26 24 23 22 22 21 20 21 21 22 21 20 19 19 18 18 17 17 17 17 16 16 16 16 16 15 15 14 14 14
26 26 29 31 31 30 29 29 29 29 29 28 27 26 24 23 23 22 22 22 23 23 23 22 21 21 20 20 20 19 19 19 18 17 16 17 17 16 16 15 14 14
27 28 30 31 31 30 29 29 30 30 30 29 28 27 26 25 24 23 23 24 25 25 24 24 23 22 22 22 22 21 21 21 20 19 18 18 18 18 18 17 15 15
28 29 30 31 32 31 30 30 31 32 32 31 31 30 28 27 26 25 25 26 26 26 25 24 24 24 24 24 24 24 23 23 23 21 20 20 20 20 20 19 18 16
28 30 30 31 31 31 31 32 32 33 33 33 33 32 31 29 28 28 27 27 27 27 26 25 25 25 25 26 26 26 26 26 25 24 23 22 22 22 22 21 21 18
28 30 31 32 32 33 33 33 34 33 34 35 35 34 33 32 31 30 29 28 28 28 27 26 25 25 27 28 28 28 28 28 27 26 26 25 25 24 24 24 23 21
27 29 31 33 34 34 35 35 35 35 35 35 36 35 35 34 33 32 31 30 30 30 29 28 27 27 28 29 29 29 29 29 29 29 29 28 28 27 26 26 26 24
28 29 31 33 35 35 36 36 36 35 36 36 37 37 36 35 35 35 34 33 32 32 32 31 29 28 29 30 30 30 30 30 31 31 31 31 30 30 29 29 28 27
28 29 31 33 35 36 36 36 36 36 37 37 38 37 37 37 37 37 36 36 35 35 34 32 31 30 31 32 32 31 31 32 32 33 33 33 33 32 32 31 30 29
29 30 31 33 35 36 37 37 37 38 38 38 38 38 38 38 38 37 37 37 37 37 36 35 34 33 34 34 34 34 34 34 35 35 36 35 35 35 34 33 33 32
30 31 32 33 35 36 38 39 40 39 39 39 38 38 38 38 37 37 37 37 38 38 38 38 37 36 36 36 36 36 36 37 37 37 37 37 37 36 35 35 35 34
32 32 33 34 35 37 39 41 41 41 40 39 39 39 38 38 37 37 38 38 39 39 40 40 39 38 38 38 38 38 39 40 39 39 39 39 38 38 37 37 36 36
34 34 35 36 37 38 40 42 43 43 42 41 40 39 39 38 37 37 38 38 39 40 40 40 40 40 40 40 40 41 42 42 41 40 40 40 40 39 39 39 38 38
35 35 36 37 38 40 41 43 44 44 44 43 41 40 39 38 37 37 38 38 39 40 40 40 40 40 40 41 41 42 43 43 42 41 41 42 41 41 41 41 41 41
36 36 37 38 40 41 42 43 44 45 45 44 43 41 40 38 37 37 38 38 39 39 39 39 39 39 39 40 41 42 42 42 42 42 43 43 42 42 43 43 44 43
36 37 38 39 41 42 42 43 44 44 45 45 45 43 42 40 39 39 38 38 38 39 39 39 39 39 39 40 40 41 42 42 43 43 44 44 44 44 44 45 46 46
Wind_Direction
223 225 228 229 230 231 232 237 244 249 252 254 258 262 265 268 269 267 265 264 264 265 271 283 297 310 322 332 345 352 355 357 358 358 359 359 359 358 358 359 1 4
225 227 230 232 233 234 236 241 246 251 255 258 259 261 264 268 269 269 267 267 269 271 273 281 293 305 317 328 340 347 350 351 352 354 355 356 357 358 358 359 360 2
227 228 230 233 235 236 239 242 245 249 254 258 260 261 264 267 269 269 267 267 268 272 275 281 289 300 312 325 336 343 345 346 349 351 352 353 356 358 358 358 358 1
229 230 232 234 235 236 237 240 242 246 250 255 258 260 263 266 268 267 266 265 265 267 271 276 283 293 306 321 331 337 340 342 346 349 350 352 354 356 357 357 358 360
233 231 231 233 234 236 237 239 241 244 247 250 254 259 262 264 266 266 265 265 263 264 265 267 275 285 298 313 323 330 335 339 344 347 348 349 350 352 354 354 356 357
237 234 232 232 233 236 238 239 240 243 245 247 251 256 260 263 265 266 265 264 262 262 262 264 271 280 291 303 314 324 329 335 341 343 343 344 344 345 347 349 350 352
233 236 235 234 234 237 239 240 241 242 244 246 250 253 257 261 264 265 265 264 261 261 261 263 268 276 285 295 305 316 324 330 336 338 338 338 338 338 339 341 343 345
230 234 236 235 235 237 239 241 242 243 244 246 248 251 255 258 261 263 264 263 261 260 260 262 266 272 279 286 296 306 315 323 329 331 331 331 331 333 334 336 338 340
231 234 237 237 237 237 238 240 242 244 245 246 247 249 251 254 257 260 262 262 261 260 260 262 265 269 274 281 288 296 305 314 321 324 325 324 326 330 333 334 336 337
235 234 237 239 238 237 238 240 242 244 245 246 246 247 249 251 254 257 259 261 260 259 260 261 264 267 272 277 282 289 297 305 313 317 317 317 319 324 329 333 335 335
240 236 237 238 238 236 237 239 241 244 245 246 246 246 247 249 251 254 256 258 258 258 259 260 263 265 269 273 278 284 291 298 305 311 311 309 310 315 321 328 332 333
244 240 239 240 240 237 236 237 239 242 244 246 246 246 246 247 248 251 252 254 255 256 258 259 261 264 267 270 274 279 285 291 297 303 305 302 301 305 311 318 324 328
246 243 241 242 243 240 237 236 238 240 242 244 245 245 245 246 246 248 249 251 253 254 256 258 260 263 265 268 271 276 281 286 291 297 300 297 294 296 301 307 313 319
247 246 244 244 244 243 241 238 238 239 241 242 243 243 243 244 245 246 247 249 251 252 254 257 258 261 263 266 269 273 277 282 286 291 294 295 292 289 292 297 302 308
249 247 246 246 245 245 243 241 240 240 241 242 244 244 244 243 243 244 246 248 250 252 254 255 257 259 262 264 267 271 274 278 282 286 290 292 291 288 286 289 294 299
253 250 247 246 245 244 244 243 243 243 243 244 245 247 247 246 244 244 245 248 250 252 254 255 256 258 261 264 266 269 272 275 279 282 285 288 290 288 284 283 286 291
256 252 249 246 244 244 244 244 244 244 245 246 247 248 248 248 247 245 245 246 249 251 252 253 254 257 260 262 265 268 270 273 276 279 282 284 286 287 283 279 280 284
257 254 250 247 245 244 243 244 244 245 246 247 248 248 248 249 249 247 246 246 247 249 250 251 253 255 258 261 264 266 269 271 274 277 279 281 283 285 283 278 275 278
258 254 251 248 247 245 244 244 244 245 245 246 248 248 248 249 249 249 249 249 249 249 251 252 253 254 257 259 262 265 267 270 272 274 276 279 281 282 281 277 273 273
257 254 251 248 247 246 244 243 243 243 244 245 247 248 248 248 249 250 251 252 252 253 253 254 254 255 257 259 261 264 266 268 270 272 274 276 278 279 279 277 273 270
256 252 250 248 246 245 244 242 242 242 244 245 246 248 248 249 250 251 252 253 254 255 255 256 256 257 258 260 262 264 265 266 268 270 272 274 276 277 277 275 272 270
256 252 249 247 245 244 243 242 242 242 243 245 246 248 249 250 250 250 252 253 254 255 256 257 257 258 259 260 262 263 264 265 267 269 271 272 273 274 274 273 272 271
256 252 249 247 245 243 242 241 241 241 242 243 245 246 248 249 250 250 251 252 254 255 256 257 257 258 259 259 260 262 263 265 267 268 269 270 270 271 271 271 271 270
256 253 249 247 245 244 243 241 241 241 241 242 243 245 247 248 250 251 251 252 253 254 256 256 257 258 259 259 259 260 262 264 266 267 268 268 268 268 269 269 269 269
256 254 251 249 247 245 244 243 242 241 241 241 242 243 245 247 248 249 250 250 252 254 255 257 258 259 260 261 261 262 263 264 265 266 266 266 266 266 266 266 267 268
256 253 251 250 249 247 246 245 244 243 241 240 241 242 243 244 246 248 248 249 250 251 253 254 256 257 258 259 260 261 262 263 263 264 264 265 265 264 264 264 265 265
Height
11018 11019 11020 11022 11023 11024 11025 11025 11025 11026 11026 11027 11027 11028 11028 11028 11028 11029 11029 11029 11029 11029 11029 11029 11029 11028 11027 11026 11025 11024 11023 11022 11020 11019 11018 11017 11016 11015 11014 11014 11013 11012
11017 11018 11019 11020 11021 11023 11024 11024 11024 11025 11025 11026 11026 11027 11027 11028 11028 11028 11029 11028 11029 11029 11028 11028 11028 11028 11027 11026 11025 11024 11022 11021 11020 11019 11018 11017 11016 11015 11014 11013 11012 11012
11016 11016 11017 11018 11020 11022 11022 11022 11023 11024 11024 11025 11025 11026 11027 11027 11028 11028 11028 11028 11028 11028 11028 11028 11028 11027 11026 11025 11024 11023 11022 11021 11020 11018 11017 11016 11015 11014 11014 11013 11012 11011
11014 11015 11016 11017 11019 11020 11020 11021 11022 11022 11023 11024 11024 11025 11026 11026 11027 11027 11028 11028 11028 11028 11028 11027 11027 11027 11026 11025 11024 11023 11021 11020 11019 11018 11017 11016 11015 11014 11013 11012 11012 11011
11012 11014 11015 11016 11017 11018 11018 11019 11020 11021 11022 11022 11023 11024 11025 11025 11026 11026 11027 11027 11027 11027 11027 11027 11027 11026 11025 11024 11023 11022 11021 11020 11019 11018 11016 11015 11014 11014 11013 11012 11011 11010
11010 11011 11013 11014 11015 11015 11016 11018 11019 11019 11020 11021 11021 11022 11023 11024 11024 11025 11025 11026 11026 11026 11026 11026 11026 11026 11025 11024 11023 11022 11021 11020 11018 11017 11016 11015 11014 11013 11013 11012 11011 11010
11007 11009 11010 11012 11013 11014 11015 11016 11017 11017 11018 11019 11020 11021 11022 11022 11023 11024 11024 11025 11025 11025 11025 11025 11025 11025 11024 11023 11022 11021 11020 11019 11018 11017 11016 11015 11014 11013 11012 11012 11011 11010
11005 11006 11008 11009 11010 11012 11013 11014 11015 11016 11016 11017 11018 11019 11020 11020 11021 11022 11023 11023 11023 11024 11024 11024 11024 11024 11023 11023 11022 11021 11020 11019 11018 11017 11016 11015 11014 11013 11012 11011 11011 11010
11003 11004 11005 11007 11008 11009 11010 11011 11012 11013 11014 11015 11016 11017 11017 11018 11019 11020 11021 11021 11021 11022 11022 11023 11023 11023 11022 11022 11021 11020 11019 11018 11017 11016 11015 11014 11013 11013 11012 11011 11010 11009
11001 11002 11002 11004 11005 11007 11008 11009 11010 11011 11012 11013 11014 11014 11015 11016 11017 11018 11018 11019 11019 11020 11020 11021 11021 11021 11021 11020 11019 11019 11018 11017 11016 11015 11014 11013 11013 11012 11011 11010 11010 11009
10998 10999 10999 11000 11002 11003 11005 11006 11007 11008 11009 11010 11011 11012 11013 11014 11014 11015 11016 11017 11017 11017 11018 11018 11019 11019 11019 11019 11018 11017 11016 11015 11015 11014 11013 11012 11012 11011 11010 11010 11009 11008
10994 10995 10996 10996 10998 11000 11002 11003 11004 11005 11007 11008 11009 11010 11010 11011 11012 11013 11014 11014 11014 11015 11015 11016 11017 11017 11017 11017 11016 11016 11015 11014 11013 11013 11012 11011 11010 11010 11009 11009 11008 11007
10990 10991 10992 10993 10995 10997 10999 11000 11001 11002 11004 11005 11006 11007 11008 11008 11009 11010 11011 11011 11011 11012 11013 11014 11014 11015 11015 11015 11014 11014 11013 11012 11011 11011 11010 11010 11009 11008 11008 11007 11007 11006
10985 10987 10988 10990 10992 10994 10996 10997 10998 10999 11000 11001 11002 11003 11004 11006 11007 11007 11008 11008 11008 11009 11010 11011 11012 11013 11013 11012 11012 11012 11011 11010 11009 11009 11008 11008 11007 11007 11006 11006 11005 11005
10982 10983 10985 10987 10988 10990 10992 10993 10994 10995 10997 10998 10999 11000 11001 11003 11003 11004 11005 11005 11006 11006 11007 11008 11009 11010 11010 11010 11010 11009 11009 11008 11007 11006 11006 11006 11005 11005 11004 11004 11003 11003
10979 10980 10981 10983 10984 10986 10988 10989 10990 10992 10993 10994 10995 10997 10998 10999 11000 11001 11002 11002 11003 11004 11004 11006 11007 11007 11007 11007 11007 11007 11006 11006 11005 11004 11004 11003 11003 11002 11002 11001 11001 11001
10975 10976 10977 10978 10980 10981 10983 10985 10986 10987 10988 10989 10991 10993 10994 10996 10997 10997 10998 10999 11000 11000 11001 11002 11004 11005 11004 11004 11004 11004 11004 11003 11002 11001 11001 11001 11000 11000 11000 10999 10999 10998
10971 10972 10973 10974 10975 10977 10979 10980 10982 10983 10984 10985 10986 10988 10990 10991 10993 10994 10995 10996 10996 10997 10997 10999 11000 11001 11001 11001 11001 11001 11001 11000 10999 10998 10998 10997 10997 10997 10997 10996 10996 10996
10967 10968 10969 10970 10971 10972 10974 10976 10977 10978 10979 10980 10981 10983 10985 10986 10988 10989 10991 10992 10992 10993 10994 10995 10997 10998 10997 10997 10997 10997 10997 10996 10995 10995 10994 10994 10994 10994 10993 10993 10993 10993
10962 10963 10964 10965 10966 10968 10970 10971 10972 10973 10974 10975 10977 10979 10980 10981 10983 10985 10986 10988 10989 10989 10990 10991 10992 10993 10993 10993 10993 10993 10993 10992 10991 10991 10991 10990 10990 10990 10990 10989 10989 10989
10957 10958 10959 10961 10962 10963 10965 10965 10966 10968 10969 10971 10972 10974 10975 10976 10978 10980 10982 10983 10984 10985 10986 10987 10988 10989 10989 10989 10989 10989 10988 10988 10987 10987 10987 10987 10986 10986 10985 10985 10984 10985
10953 10953 10954 10956 10957 10958 10959 10960 10961 10963 10964 10966 10968 10969 10971 10972 10974 10975 10976 10978 10979 10980 10981 10982 10983 10984 10985 10985 10985 10984 10984 10983 10983 10983 10983 10983 10982 10982 10981 10980 10980 10980
10948 10948 10949 10950 10951 10952 10953 10954 10956 10957 10959 10961 10963 10964 10966 10967 10969 10970 10972 10973 10974 10975 10976 10977 10979 10980 10980 10981 10980 10980 10979 10979 10979 10979 10979 10978 10978 10977 10977 10976 10975 10975
10943 10943 10944 10945 10946 10947 10948 10949 10951 10952 10954 10956 10958 10959 10961 10963 10964 10965 10966 10967 10968 10969 10970 10972 10973 10975 10976 10976 10976 10975 10974 10974 10975 10975 10974 10973 10973 10973 10972 10971 10970 10970
10938 10939 10939 10940 10941 10942 10943 10944 10946 10948 10949 10951 10953 10955 10956 10958 10959 10960 10960 10961 10962 10964 10965 10966 10968 10970 10970 10970 10971 10970 10970 10970 10970 10969 10968 10968 10968 10968 10967 10966 10965 10965
10932 10933 10934 10934 10935 10937 10938 10940 10941 10943 10944 10946 10947 10949 10951 10952 10953 10954 10955 10956 10957 10958 10960 10961 10963 10964 10964 10965 10965 10965 10965 10965 10964 10963 10963 10963 10963 10962 10962 10960 10960 10960